Location: Cheyres
(46.8153°N, 6.7877°E)
Time: 00:57:57
(UTC+00:00)

SEEDS - Pass Details

Date: 11 July 2022
Orbit: 579 x 598 km, 97.6° (Epoch: 06 August)

Event Time Altitude Azimuth Distance (km) Brightness Sun altitude
Rises 03:02:38 0° 24° (NNE) 2,810 ? -7.1°
Reaches altitude 10° 03:05:06 10° 37° (NE) 1,905 ? -6.8°
Maximum altitude 03:08:33 25° 94° (E) 1,178 ? -6.4°
Drops below altitude 10° 03:11:59 10° 151° (SSE) 1,894 ? -5.9°
Sets 03:14:25 0° 165° (SSE) 2,789 ? -5.6°
